EHI
21 20 19 17 15 14 13 19 27 31 28 21 15 12 10 10 11 10 6 4 4 3 1 0 0 0 0 0 0 0 0 0 0 1 3 6 5 2 0 0 0 0 0
18 18 19 18 15 13 12 16 25 29 26 20 14 11 9 9 10 9 6 4 3 3 3 1 0 0 0 0 0 0 0 0 0 1 2 4 4 2 0 0 0 0 0
15 15 17 17 15 12 11 14 21 25 23 18 13 9 7 6 7 6 4 3 3 3 4 2 1 1 0 0 0 0 0 0 0 0 1 1 1 1 1 0 0 0 0
16 16 17 17 15 12 11 14 20 22 20 17 13 8 5 4 4 4 3 2 2 2 3 2 1 0 0 0 0 0 0 0 0 0 0 0 0 0 1 0 0 0 0
24 22 20 18 16 14 13 16 22 23 20 18 14 8 4 3 2 2 1 2 3 3 2 1 0 0 0 0 0 0 0 0 0 0 0 0 0 1 1 0 0 0 0
31 27 24 23 20 16 15 19 25 26 25 22 17 11 6 2 1 1 1 2 4 3 2 1 0 0 0 0 0 0 0 0 0 0 0 0 1 2 2 1 0 0 0
36 31 27 27 25 20 17 22 29 32 31 29 24 19 12 5 0 0 1 2 4 4 4 3 1 0 0 1 2 1 1 0 0 0 0 0 1 2 2 1 0 0 0
39 34 30 30 30 27 26 32 40 42 40 37 32 26 19 9 2 0 0 1 3 4 5 5 4 2 1 3 4 3 2 1 0 0 0 0 0 1 1 0 0 0 0
37 36 36 36 36 35 37 43 50 52 49 43 37 30 23 15 6 0 0 0 1 2 3 4 4 3 1 2 3 3 3 2 0 0 0 0 0 0 0 0 0 0 0
39 41 44 45 44 42 43 47 50 50 46 39 32 26 22 17 8 1 0 0 0 0 1 2 2 1 0 0 1 2 3 3 2 1 1 0 0 0 0 0 0 0 0
46 48 50 50 46 43 44 44 41 38 34 28 24 21 19 14 7 1 0 0 0 0 1 2 1 0 0 0 0 1 1 2 2 2 1 0 0 0 0 0 0 0 0
44 45 45 44 39 35 37 37 33 29 25 22 20 19 16 11 5 1 0 0 0 0 1 2 1 0 0 0 0 0 0 0 1 1 1 0 0 0 0 0 0 0 0
34 34 33 31 29 26 26 27 26 23 21 19 18 17 14 10 6 2 0 0 0 0 0 0 0 0 0 0 0 0 0 0 0 0 0 0 0 0 0 0 0 0 0
25 25 23 22 21 19 18 18 18 17 15 14 14 13 12 10 7 3 1 0 0 0 0 0 0 0 0 0 0 0 0 0 0 0 0 0 0 0 0 0 0 0 0
19 19 18 17 15 14 13 11 10 10 9 8 9 9 8 7 5 2 1 0 0 0 0 0 0 0 0 0 0 0 0 0 0 0 0 0 0 0 0 0 0 0 0
15 15 16 15 13 11 9 6 4 3 3 3 3 3 3 2 1 1 0 0 0 0 0 0 0 0 0 0 0 0 0 0 0 0 0 0 0 0 0 0 0 0 0
13 13 13 13 12 9 7 4 1 0 0 0 0 0 0 0 0 0 0 0 0 0 0 0 0 0 0 0 0 0 0 0 0 0 0 0 0 0 0 0 0 0 0
10 10 10 10 10 8 5 2 1 0 0 0 0 0 0 0 0 0 0 0 0 0 0 0 0 0 0 0 0 0 0 0 0 0 0 0 0 0 0 0 0 0 0
7 7 7 7 7 5 2 1 0 0 0 0 0 0 0 0 0 0 0 0 0 0 0 0 0 0 0 0 0 0 0 0 0 0 0 0 0 0 0 0 0 0 0
6 5 5 5 4 3 1 0 0 0 0 0 0 0 0 0 0 0 0 0 0 0 0 0 0 0 0 0 0 0 0 0 0 0 0 0 0 0 0 0 0 0 0
3 3 2 2 2 2 1 0 0 0 0 0 0 0 0 0 0 0 0 0 0 0 0 0 0 0 0 0 0 0 0 0 0 0 0 0 0 0 0 0 0 0 0
1 1 0 0 1 1 1 0 0 0 0 0 1 0 0 0 0 0 0 0 0 0 0 0 0 0 0 0 0 0 0 0 0 0 0 0 0 0 0 0 0 0 0
0 0 0 0 0 0 0 0 0 0 0 0 0 0 0 0 0 0 0 0 0 0 0 0 0 0 0 0 0 0 0 0 0 0 0 0 0 0 0 0 0 0 0
0 0 0 0 0 0 0 0 0 0 0 0 0 0 0 0 0 0 0 0 0 0 0 0 0 0 0 0 0 0 0 0 0 0 0 0 0 0 0 0 0 0 0
0 0 0 0 0 0 0 0 0 0 0 0 0 0 0 0 0 0 0 0 0 0 0 0 0 0 0 0 0 0 0 0 0 0 0 0 0 0 0 0 0 0 0
0 0 0 0 0 0 0 0 0 0 0 0 0 0 0 0 0 0 0 0 0 0 0 0 0 0 0 0 0 0 0 0 0 0 0 0 0 0 0 0 0 0 0
Wind_Speed
10 9 9 9 9 8 7 7 6 6 7 7 7 6 6 6 5 5 4 5 5 5 4 4 3 3 2 2 2 1 1 1 2 2 1 1 3 2 3 3 3 5 7
10 9 8 8 9 9 8 7 7 7 7 7 7 6 7 7 6 6 6 6 6 6 5 4 4 4 3 2 2 2 2 1 2 3 2 1 2 4 4 4 5 6 5
10 10 9 9 9 9 8 8 8 8 7 8 7 7 7 7 7 6 6 5 6 6 6 5 5 5 4 3 3 3 2 3 2 2 3 2 2 3 4 5 6 5 7
10 10 9 9 8 8 8 8 8 8 8 8 8 7 7 7 7 7 7 6 5 5 5 5 5 6 6 5 4 4 4 3 3 3 4 3 3 4 3 3 4 4 6
11 10 9 9 8 8 8 8 8 8 9 8 8 7 7 7 8 8 7 8 6 6 5 5 6 7 6 5 5 4 4 4 4 4 4 4 4 3 3 3 5 4 5
9 9 9 9 9 8 8 8 8 8 7 8 8 8 8 8 9 11 8 6 6 6 6 5 6 6 8 9 8 7 5 5 5 4 4 4 4 4 3 3 3 3 4
8 9 9 9 9 9 10 9 9 8 7 7 7 7 7 6 8 10 11 6 5 5 6 5 7 7 8 7 9 11 10 11 9 5 6 6 5 4 3 4 4 4 5
8 8 8 9 9 9 8 8 8 7 6 6 6 6 6 7 9 9 10 7 5 5 5 5 6 5 5 5 6 7 8 8 9 9 8 9 8 5 4 4 5 6 6
6 6 7 8 8 8 8 7 6 6 6 5 5 5 5 5 7 9 9 5 5 5 6 5 5 5 5 6 5 6 6 6 9 11 11 11 11 11 7 4 5 5 7
5 5 5 5 6 5 5 5 5 5 5 5 4 4 4 3 4 6 7 4 4 5 5 5 5 5 5 6 5 5 6 6 5 6 6 9 10 11 12 9 7 7 7
4 4 4 4 5 5 4 3 3 4 4 3 3 2 2 2 3 5 7 3 3 4 3 3 2 2 4 5 5 5 6 5 5 6 6 6 6 6 7 8 8 7 7
5 5 5 5 4 3 4 3 3 3 4 3 3 2 2 2 2 4 6 5 3 2 2 2 1 0 3 5 5 6 7 6 5 5 6 6 6 5 5 5 7 8 9
7 7 6 6 5 5 5 4 3 2 2 2 2 2 1 1 2 2 4 4 4 2 2 3 3 3 3 4 7 8 6 4 5 5 6 6 5 5 4 4 5 6 8
7 7 7 7 7 6 6 5 4 3 2 2 1 1 2 2 2 2 0 1 2 3 3 4 5 6 5 5 4 4 5 5 5 5 5 5 5 4 4 4 4 4 5
7 6 6 6 6 6 7 7 6 6 5 3 3 3 2 2 3 4 2 2 2 1 3 3 3 3 3 2 3 3 3 3 4 4 4 4 4 4 4 3 3 4 5
6 5 4 4 4 5 7 7 11 8 9 10 8 6 5 4 3 4 4 3 3 3 1 2 2 2 2 3 3 2 2 2 2 3 3 4 4 5 5 4 4 5 6
6 4 3 3 4 4 5 5 5 5 7 8 8 7 6 4 3 3 3 4 5 2 1 1 2 2 2 3 3 3 3 3 2 3 3 3 4 4 4 5 5 5 5
6 5 4 3 3 3 3 3 4 4 4 4 3 4 3 2 2 3 3 4 2 1 2 2 2 3 3 3 3 3 3 4 3 3 4 3 3 4 4 5 5 5 5
6 5 4 4 4 4 3 3 3 3 3 4 5 3 1 1 1 3 3 3 3 3 4 4 4 4 4 4 4 4 4 3 4 4 4 4 4 4 5 5 5 7 7
4 6 5 3 4 4 4 4 4 4 4 5 5 4 3 2 2 2 2 2 3 4 4 4 4 4 4 4 4 4 4 4 4 4 4 5 5 5 6 7 7 6 6
5 5 5 5 6 6 6 6 5 4 5 5 5 5 5 4 4 5 5 4 4 4 4 4 4 4 4 4 4 5 6 5 5 5 5 5 6 6 6 6 7 7 7
5 6 6 7 6 6 5 5 5 5 5 5 4 4 5 4 5 6 5 5 5 5 4 4 4 4 4 5 5 5 6 6 6 6 7 7 7 7 7 7 7 7 7
6 7 7 7 6 6 5 6 6 6 6 6 6 5 5 5 5 5 5 5 5 5 5 5 5 5 5 5 5 5 6 6 6 7 8 7 8 8 8 8 9 9 8
8 8 7 6 6 6 6 6 6 7 7 6 6 6 6 5 6 6 6 5 5 5 5 5 5 7 9 7 5 5 5 6 7 7 9 9 9 8 8 8 9 10 9
7 7 7 7 6 6 7 7 7 7 7 7 7 7 7 6 6 6 6 6 7 6 7 6 5 7 9 10 9 7 6 6 6 7 7 7 9 9 9 10 9 9 9
7 7 7 6 6 6 6 6 7 7 7 7 6 6 6 7 7 7 7 7 7 6 6 6 8 8 10 9 9 8 6 7 7 7 7 7 8 8 8 8 11 9 10
Wind_Direction
172 179 175 178 181 176 177 180 173 162 157 161 167 170 172 178 181 187 206 180 192 206 215 204 202 253 287 283 258 254 255 261 271 288 269 166 145 152 159 220 231 208 211
171 174 175 174 175 177 180 181 172 164 164 167 174 177 183 186 186 193 213 198 196 201 209 213 203 215 222 267 285 266 251 237 252 279 279 217 190 192 194 217 241 245 238
173 177 175 175 176 181 182 178 174 171 176 177 182 187 192 192 191 199 211 215 207 205 206 209 211 216 216 221 240 264 265 254 221 251 266 250 223 216 208 225 241 253 263
173 179 178 180 181 184 182 179 179 178 181 183 186 191 195 197 197 201 210 218 217 214 211 210 213 215 215 216 228 238 257 269 251 243 256 253 237 220 202 219 242 236 244
175 180 180 180 181 185 184 184 182 182 189 187 191 197 198 203 207 203 206 212 212 218 220 217 221 219 216 210 226 223 232 240 248 244 247 249 243 234 220 222 241 247 241
178 182 180 180 182 185 186 186 185 189 193 188 195 201 204 213 207 199 199 211 203 210 219 223 225 220 216 215 226 234 235 239 247 254 258 256 252 245 241 245 254 262 267
182 185 183 184 186 188 194 190 190 191 193 194 197 198 206 217 203 192 198 207 212 213 214 215 232 232 213 217 222 229 239 241 236 247 264 271 281 288 292 280 274 275 270
185 189 187 188 191 191 193 190 190 188 190 194 198 200 204 214 198 192 197 210 226 230 229 224 226 250 239 226 228 228 232 236 232 231 243 253 263 273 274 273 272 274 268
181 185 184 184 186 186 188 187 184 182 189 193 194 203 209 211 195 193 193 208 222 235 241 242 232 228 234 231 233 241 245 247 240 238 234 241 245 249 249 264 264 263 267
174 176 175 169 171 179 182 176 176 178 187 189 194 198 202 202 185 188 194 217 226 235 234 236 245 243 241 226 236 246 253 260 272 271 252 249 248 248 238 229 242 252 261
145 138 136 138 146 149 148 147 152 166 170 176 169 158 153 168 159 170 181 212 241 246 247 234 221 213 225 226 231 242 250 266 277 272 266 257 248 245 240 228 225 233 247
93 97 103 105 122 137 128 129 134 149 156 165 158 155 153 151 135 163 178 207 257 289 298 318 16 248 236 238 234 248 258 265 265 267 267 266 262 256 249 239 233 231 233
74 77 78 83 78 72 89 98 101 107 138 147 147 151 135 111 102 135 184 213 238 251 292 321 317 292 270 252 245 251 258 253 253 260 266 270 272 273 270 262 256 246 243
76 76 77 80 77 69 67 67 69 65 70 89 99 115 106 73 48 39 118 221 239 260 281 282 277 270 264 267 265 246 238 243 249 258 266 272 278 280 282 290 289 285 276
74 78 82 83 88 81 73 58 65 57 51 57 53 55 66 62 31 27 29 12 347 339 302 274 263 260 257 261 262 258 250 245 252 267 282 292 299 301 299 296 290 289 279
64 68 85 98 100 104 103 82 55 68 69 72 71 76 81 82 74 53 38 9 342 342 303 284 302 319 318 318 315 308 306 314 314 307 302 301 299 294 292 293 286 279 279
55 54 64 80 95 104 114 121 115 82 66 67 72 75 84 92 73 48 18 347 324 316 285 316 342 342 343 344 344 344 342 345 335 324 317 313 309 303 302 298 293 288 286
51 51 46 58 70 87 96 106 120 130 126 112 93 86 82 65 33 9 356 347 353 6 353 4 2 1 0 359 358 354 343 340 341 329 319 316 314 310 309 308 307 305 302
46 39 36 40 57 65 67 70 72 76 87 111 118 102 49 339 347 345 358 8 10 16 18 12 5 0 357 358 355 348 340 335 332 323 321 322 320 318 313 310 305 303 298
64 48 34 39 49 51 52 54 57 58 59 60 66 59 38 19 52 46 48 31 21 21 14 7 2 355 354 356 350 341 330 328 330 329 327 323 319 315 312 309 307 304 299
41 48 37 44 50 40 39 42 44 43 49 60 64 54 22 16 27 33 33 30 23 17 12 2 357 350 352 345 339 334 336 336 336 331 327 325 322 317 309 304 303 303 303
27 37 41 43 47 39 29 35 38 43 44 47 51 54 42 22 24 31 27 23 17 12 9 1 353 350 352 351 347 343 337 334 336 335 332 328 323 314 310 307 306 308 307
31 36 41 43 41 37 35 37 36 37 35 38 34 33 35 25 27 26 19 18 15 9 8 5 357 356 358 355 352 352 349 346 340 334 326 318 312 309 308 305 304 304 305
35 37 36 37 38 37 37 38 37 39 38 36 33 33 33 28 27 24 17 16 11 9 8 7 3 359 358 352 350 6 11 354 337 325 319 308 303 300 300 301 300 300 301
37 37 37 39 39 38 39 41 42 40 37 34 29 27 25 22 21 20 17 11 5 5 5 7 4 2 4 5 5 7 2 347 333 322 310 301 298 297 296 296 296 297 297
39 39 38 39 39 40 41 42 41 38 36 34 29 23 21 19 17 15 14 8 358 358 359 360 1 10 11 10 10 5 353 340 327 312 301 293 291 292 298 298 300 299 298